DECAYED

STARLINK-1298, 45413 (Decayed)

Orbit data source: Space-Track

STARLINK-1298, 45413 was a payload satellite owned by SpaceX/Seattle (US) in LEO that was launched on Wed, 18 Mar 2020 UTC via an FALCON 9 launch vehicle from the Air Force Eastern Test Range (AFETR). Payload-class satellites include a variety of spacecraft equipped with specific instruments for various scientific and technological missions. These include communications satellites like Starlink; space stations such as the ISS; scientific satellites like the Hubble; Earth observation satellites from companies like Planet Labs, Umbra, and HawkEye 360; GPS; miniature CubeSats for education and research; and military/defense satellites.

Not visible in the next 10 days
Identifier
45413, 2020-019BF
Orbit
Decayed
Country
Flag of USUS
Related business
Manufacturer
SpaceX/Seattle
Mission
Decayed Commercial Communications
Bus & Motor
STARLINK, Unknown motor
Mass
260 kg wet, ~248 kg dry
Launch date (UTC)
2020-03-18 (6 years ago)
Launch vehicle
FALCON 9
Launch site
Air Force Eastern Test Range (AFETR)
Object type
Payload
Rocket body
Debris
Shape & HBR
Box + 1 Pan, 10.1 m
Radar Cross Section
13.562 m², Large (>1 m²)

Expand to show TLE details & history
Last TLE update: 3 months ago

TLE from 3 months ago
0 STARLINK-1298
1 45413U 20019BF  26088.06199933  .05321526  12203-4  72346-3 0  9994
2 45413  53.0202 312.4958 0006230 265.4997  94.5335 16.34465515334230
Epoch: 2026-03-29T01:29Z
TLE epoch observation values (Epoch: 2026-03-29T01:29:16.742Z)
Latitude
-0.00001°
Longitude
103.70274°
Altitude
181.816 km
Speed
7.798 km/s
True Right ascension
20h 49m 58s
True Declination
0° 00' 00"
Sunlit
Object was in daylight at epoch
Visualization orbit readout
Latitude
Unknown
Longitude
Unknown
Altitude
Unknown
Speed
Unknown
Apparent Right ascension
Unknown
Apparent Declination
Unknown
Sunlit
N/A
Visualization observer readout
Local Sidereal Time
21:50:09
Azimuth
Unknown
Elevation
Unknown
Doppler factor
Unknown
Orbital elements
Apogee altitude
184.944 km
Perigee altitude
176.771 km
Semi-major axis
6,558.995 km
Eccentricity
0.00062
Inclination
53.0202°
RAAN
312.4958°
Arg. of periapsis
265.4997°
True anomaly
94.60466°
Mean anomaly
94.5335°
Eccentric anomaly
94.56908°
Mean motion
4.0859 °/min
Orbital period
88.11 mins
BSTAR
0.00072346
Loading maneuver chart data...
Computing Atmospheric mass density...

Documentation

Showing up to 5 results
|